Weather reports worldwide

Advertisment
Ciudad Real, Spain (8348): temperature & dewpoint: 18.06.2018 16:00:00 - 24.06.2018 16:00:00 (CEST)Ciudad Real, Spain (8348): wind speed: 18.06.2018 16:00:00 - 24.06.2018 16:00:00 (CEST)Ciudad Real, Spain (8348): wind direction: 18.06.2018 16:00:00 - 24.06.2018 16:00:00 (CEST)Ciudad Real, Spain (8348): reduced air pressure: 18.06.2018 16:00:00 - 24.06.2018 16:00:00 (CEST)Ciudad Real, Spain (8348): visibility: 18.06.2018 16:00:00 - 24.06.2018 16:00:00 (CEST)Ciudad Real, Spain (8348): precipitation: 18.06.2018 16:00:00 - 24.06.2018 16:00:00 (CEST)
Date & Time tt [°C] td [°C] ff [km/h] ff [kn] dd ppp [hPa] vv [km] rr [mm]
24.06.2018 16:00:00 38,1 8,8 8 4 E 1009,4 20 0,0
24.06.2018 15:00:00 36,9 10,2 5 3 SE 1010,2 20 0,0
24.06.2018 14:00:00 35,5 9,8 8 4 ENE 1011,3 20 -
24.06.2018 13:00:00 33,5 10,8 5 3 N 1012,3 20 0,0
24.06.2018 12:00:00 31,7 12,5 5 3 NNE 1013,0 20 0,0
24.06.2018 11:00:00 29,2 12,6 4 2 NNE 1014,0 20 -
24.06.2018 10:00:00 26,1 12,2 4 2 ESE 1014,9 20 0,0
24.06.2018 09:00:00 22,4 12,9 4 2 E 1015,5 20 0,0
24.06.2018 08:00:00 20,2 11,7 4 2 N 1015,9 20 -
24.06.2018 07:00:00 19,9 11,1 2 1 NNE 1015,8 20 0,0
24.06.2018 06:00:00 20,6 11,0 2 1 ENE 1015,1 20 0,0
24.06.2018 05:00:00 21,7 10,8 4 2 E 1014,4 20 -
24.06.2018 04:00:00 22,7 11,1 5 3 E 1013,7 20 0,0
24.06.2018 03:00:00 24,1 11,8 2 1 ENE 1013,4 20 0,0
24.06.2018 02:00:00 24,9 10,7 2 1 NNW 1013,6 20 -
24.06.2018 01:00:00 25,9 9,7 4 2 N 1013,1 20 0,0
24.06.2018 00:00:00 27,6 8,9 5 3 NNE 1012,6 19 0,0
23.06.2018 23:00:00 29,1 7,6 8 4 ENE 1012,0 19 -
23.06.2018 22:00:00 31,2 8,2 5 3 NE 1011,0 12 0,0
23.06.2018 21:00:00 33,8 7,7 8 4 NE 1010,0 20 0,0
23.06.2018 20:00:00 35,9 7,0 9 5 NNE 1009,4 20 -
23.06.2018 19:00:00 36,5 7,5 8 4 NE 1009,5 20 0,0
23.06.2018 18:00:00 37,1 8,0 8 4 SSE 1009,6 20 0,0
23.06.2018 17:00:00 37,1 7,1 5 3 ESE 1010,1 20 -
23.06.2018 16:00:00 36,5 9,9 8 4 NE 1010,8 20 0,0
23.06.2018 15:00:00 34,9 10,0 8 4 E 1011,9 20 0,0
23.06.2018 14:00:00 34,0 10,6 9 5 ENE 1012,9 20 -
23.06.2018 13:00:00 33,2 11,1 5 3 SE 1013,6 20 0,0
23.06.2018 12:00:00 31,2 12,5 4 2 SSW 1014,3 20 0,0
23.06.2018 11:00:00 28,7 13,4 4 2 NNW 1015,0 20 -
23.06.2018 10:00:00 26,1 12,2 4 2 WNW 1015,7 20 0,0
23.06.2018 09:00:00 22,8 11,2 2 1 ESE 1016,5 20 0,0
23.06.2018 08:00:00 20,5 11,9 2 1 ESE 1016,8 20 -
23.06.2018 07:00:00 20,3 11,0 2 1 NW 1016,4 20 0,0
23.06.2018 06:00:00 21,8 10,3 2 1 NE 1015,7 20 0,0
23.06.2018 05:00:00 22,2 9,7 4 2 S 1015,4 20 -
23.06.2018 04:00:00 23,3 9,3 4 2 WSW 1015,0 20 0,0
23.06.2018 03:00:00 23,7 8,9 9 5 S 1014,7 20 0,0
23.06.2018 02:00:00 23,9 7,9 5 3 ENE 1014,5 20 -
23.06.2018 01:00:00 25,2 7,8 8 4 ENE 1014,1 20 0,0
23.06.2018 00:00:00 26,2 7,7 5 3 E 1013,8 20 0,0
22.06.2018 23:00:00 27,9 8,2 9 5 ENE 1012,9 20 -
22.06.2018 22:00:00 30,0 8,4 4 2 N 1011,7 19 0,0
22.06.2018 21:00:00 32,4 7,9 5 3 N 1010,7 20 0,0
22.06.2018 20:00:00 34,4 7,4 8 4 NNE 1010,2 20 -
22.06.2018 19:00:00 35,0 7,1 5 3 NNW 1010,1 20 0,0
22.06.2018 18:00:00 35,5 6,7 5 3 E 1010,6 20 0,0
22.06.2018 17:00:00 35,5 7,5 9 5 ESE 1011,0 20 -
22.06.2018 16:00:00 34,7 8,4 11 6 E 1011,6 20 0,0
22.06.2018 15:00:00 33,4 8,1 8 4 ENE 1012,6 16 0,0
22.06.2018 14:00:00 32,4 10,4 8 4 ESE 1013,6 20 -
22.06.2018 13:00:00 31,0 11,9 8 4 ENE 1014,5 20 0,0
22.06.2018 12:00:00 29,5 12,4 4 2 NW 1015,1 20 0,0
22.06.2018 11:00:00 26,8 12,8 4 2 SW 1016,3 20 -
22.06.2018 10:00:00 23,9 11,6 2 1 ESE 1017,0 20 0,0
22.06.2018 09:00:00 20,7 10,8 5 3 NE 1017,6 20 0,0
22.06.2018 08:00:00 18,0 9,3 4 2 N 1017,9 20 -
22.06.2018 07:00:00 17,5 8,4 4 2 ENE 1018,0 20 0,0
22.06.2018 06:00:00 18,5 7,9 2 1 N 1017,1 20 0,0
22.06.2018 05:00:00 19,3 7,7 2 1 ESE 1016,4 20 -
22.06.2018 04:00:00 19,9 7,3 8 4 ENE 1016,0 20 0,0
22.06.2018 03:00:00 20,9 7,1 5 3 NE 1016,2 20 0,0
22.06.2018 02:00:00 22,6 6,8 5 3 NNE 1015,9 20 -
22.06.2018 01:00:00 24,6 6,8 4 2 E 1015,5 20 0,0
22.06.2018 00:00:00 26,5 6,5 9 5 SE 1014,9 20 0,0
21.06.2018 23:00:00 27,9 6,6 15 8 E 1013,9 20 -
21.06.2018 22:00:00 29,8 6,4 15 8 E 1012,6 20 0,0
21.06.2018 21:00:00 31,6 6,6 11 6 E 1011,7 20 0,0
21.06.2018 20:00:00 34,0 7,9 8 4 ESE 1010,9 20 -
21.06.2018 19:00:00 34,4 8,9 8 4 ESE 1010,7 20 0,0
21.06.2018 18:00:00 34,6 9,1 9 5 SE 1011,1 20 0,0
21.06.2018 17:00:00 34,4 9,6 9 5 ENE 1011,6 20 -
21.06.2018 16:00:00 33,6 8,9 13 7 E 1012,2 20 0,0
21.06.2018 15:00:00 32,8 11,3 5 3 N 1012,8 20 0,0
21.06.2018 14:00:00 31,1 12,0 8 4 ENE 1013,9 20 -
21.06.2018 13:00:00 30,0 11,0 5 3 N 1014,9 19 0,0
21.06.2018 12:00:00 28,0 11,5 5 3 WNW 1015,5 20 0,0
21.06.2018 11:00:00 26,3 12,0 4 2 WNW 1016,1 20 -
21.06.2018 10:00:00 23,6 11,3 4 2 W 1016,9 20 0,0
21.06.2018 09:00:00 21,1 10,9 5 3 E 1017,3 20 0,0
21.06.2018 08:00:00 18,3 10,6 8 4 ENE 1017,7 20 -
21.06.2018 07:00:00 18,0 10,1 9 5 ENE 1017,0 20 0,0
21.06.2018 06:00:00 18,9 9,4 8 4 ENE 1016,5 20 0,0
21.06.2018 05:00:00 20,2 9,1 9 5 ENE 1015,9 20 -
21.06.2018 04:00:00 20,7 9,3 11 6 ENE 1015,7 20 0,0
21.06.2018 03:00:00 21,3 9,2 9 5 ENE 1015,8 20 0,0
21.06.2018 02:00:00 22,4 9,2 5 3 NE 1015,5 20 -
21.06.2018 01:00:00 24,4 9,2 8 4 ENE 1015,0 20 0,0
21.06.2018 00:00:00 26,1 9,0 8 4 E 1014,7 20 0,0
20.06.2018 23:00:00 27,8 9,1 11 6 E 1014,0 20 -
20.06.2018 22:00:00 29,5 9,1 13 7 ENE 1012,7 20 0,0
20.06.2018 21:00:00 31,5 8,5 13 7 ENE 1011,7 20 0,0
20.06.2018 20:00:00 33,9 9,2 9 5 ENE 1011,0 20 -
20.06.2018 19:00:00 34,4 10,3 11 6 NNE 1010,8 20 0,0
20.06.2018 18:00:00 33,8 9,8 9 5 E 1011,4 20 0,0
20.06.2018 17:00:00 34,2 11,4 8 4 NE 1011,7 20 -
20.06.2018 16:00:00 34,2 10,7 9 5 NE 1012,3 20 0,0
20.06.2018 15:00:00 33,2 11,7 9 5 ENE 1013,0 20 0,0
20.06.2018 14:00:00 32,6 12,3 5 3 SSE 1013,8 20 -
20.06.2018 13:00:00 30,6 12,5 5 3 ENE 1014,8 20 0,0
20.06.2018 12:00:00 28,7 13,0 5 3 WNW 1015,6 20 0,0
20.06.2018 11:00:00 26,7 12,7 4 2 WNW 1016,4 20 -
20.06.2018 10:00:00 24,1 13,3 4 2 NW 1017,1 20 0,0
20.06.2018 09:00:00 20,6 12,3 2 1 NNW 1017,8 20 0,0
20.06.2018 08:00:00 18,5 11,8 2 1 NNE 1017,9 20 -
20.06.2018 07:00:00 18,0 11,8 4 2 ENE 1017,7 20 0,0
20.06.2018 06:00:00 18,5 11,8 4 2 ENE 1017,1 20 0,0
20.06.2018 05:00:00 19,5 11,8 5 3 NE 1016,7 20 -
20.06.2018 04:00:00 20,9 11,8 4 2 N 1016,4 20 0,0
20.06.2018 03:00:00 22,1 11,8 5 3 N 1016,3 20 0,0
20.06.2018 02:00:00 23,3 12,0 5 3 NNW 1016,0 20 -
20.06.2018 01:00:00 23,7 12,0 8 4 NNE 1015,8 20 0,0
20.06.2018 00:00:00 25,1 11,3 5 3 NE 1015,4 20 0,0
19.06.2018 23:00:00 27,4 11,0 5 3 NE 1014,4 20 -
19.06.2018 22:00:00 30,2 8,6 5 3 NW 1013,1 20 0,0
19.06.2018 21:00:00 31,7 8,0 5 3 N 1012,7 20 0,0
19.06.2018 20:00:00 34,1 7,2 4 2 NW 1012,2 20 -
19.06.2018 19:00:00 34,7 6,9 9 5 W 1012,0 20 0,0
19.06.2018 18:00:00 34,6 7,6 4 2 NW 1012,5 20 0,0
19.06.2018 17:00:00 35,0 7,9 9 5 SE 1012,9 20 -
19.06.2018 16:00:00 34,5 7,5 5 3 S 1013,5 20 0,0
19.06.2018 15:00:00 33,8 8,4 9 5 E 1014,0 20 0,0
19.06.2018 14:00:00 32,6 10,6 5 3 SSE 1014,8 20 -
19.06.2018 13:00:00 31,1 11,5 9 5 W 1015,7 20 0,0
19.06.2018 12:00:00 29,1 10,7 8 4 SSW 1016,7 20 0,0
19.06.2018 11:00:00 26,7 10,4 9 5 WSW 1017,6 20 -
19.06.2018 10:00:00 23,7 12,7 2 1 SSE 1018,6 20 0,0
19.06.2018 09:00:00 20,9 12,6 5 3 E 1019,2 20 0,0
19.06.2018 08:00:00 18,3 12,3 8 4 ENE 1019,5 20 -
19.06.2018 07:00:00 17,6 11,4 8 4 E 1019,3 20 0,0
19.06.2018 06:00:00 18,1 10,9 8 4 ENE 1018,7 20 0,0
19.06.2018 05:00:00 18,8 9,8 4 2 NNE 1018,3 20 -
19.06.2018 04:00:00 20,0 8,6 8 4 E 1018,3 20 0,0
19.06.2018 03:00:00 20,8 6,7 4 2 NE 1017,9 20 0,0
19.06.2018 02:00:00 21,9 5,3 5 3 ENE 1017,8 20 -
19.06.2018 01:00:00 22,7 4,7 5 3 SE 1018,0 19 0,0
19.06.2018 00:00:00 24,5 3,7 8 4 N 1017,6 11 0,0
18.06.2018 23:00:00 26,2 4,6 5 3 N 1016,7 18 -
18.06.2018 22:00:00 28,6 4,8 5 3 N 1015,5 20 0,0
18.06.2018 21:00:00 30,7 4,4 5 3 N 1014,7 20 0,0
18.06.2018 20:00:00 33,1 3,0 9 5 N 1014,1 20 -
18.06.2018 19:00:00 33,8 6,2 5 3 NNE 1014,0 20 0,0
18.06.2018 18:00:00 33,9 7,8 13 7 ENE 1014,5 20 0,0
18.06.2018 17:00:00 33,2 7,2 5 3 NNE 1015,3 20 -
18.06.2018 16:00:00 33,0 7,0 13 7 ENE 1015,9 20 0,0

tt = temperature
td = dewpoint
ff = wind speed
dd = wind direction
ppp = reduced air pressure
vv = visibility
rr = precipitation

Next stations